Back to catalog

STARLINK-5515

AliveCommunicationsVLEO
NORAD 56884·PAYLOAD·🇺🇸 United States

Launched Jun 12, 2023 from Cape Canaveral Space Force Station

Loading…

Next Passes (next 24 hours)

TLE

FreshSource: CelesTrak SupGP

Epoch: Sep 14, 2026, 22:25 UTC

1 56884C 23083J   26257.93451389  .00038282  00000+0  13866-2 0  2576
2 56884  43.0002  96.0682 0001392 248.0407 243.7569 15.27558792    11

Track STARLINK-5515 in real time with AllMySat

Download on the App Store